Weather History for Greenville, AL

Change the Weather History Date:

Thursday, October 27, 2011

  Actual Average Record
Temperature  
Mean Temperature 64 °F -  
Max Temperature 81 °F 76 °F 87 °F (2010)
Min Temperature 48 °F 50 °F 33 °F (1968)
Growing Degree Days 14 (Base 50)    
Moisture  
Dew Point 51 °F    
Average Humidity 70    
Maximum Humidity 93    
Minimum Humidity 35    
Precipitation  
Precipitation 0.00 in - - ()
Sea Level Pressure  
Sea Level Pressure 29.93 in    
Wind  
Wind Speed 1 mph (WSW)    
Max Wind Speed 8 mph    
Max Gust Speed -    
Visibility 9 miles    
Events      
Averages and records for this station are not official NWS values.
T = Trace of Precipitation, MM = Missing Value Source: NWS Daily Summary

Daily Weather History Graph

Daily Weather History Graph

Search for Another Location

Airport:

Trip Planner

Search our weather history database for the weather conditions in past years. The results will help you decide how hot, cold, wet, or windy it might be!

Date:

Astronomy

Oct. 27, 2011 Rise Set
Actual Time 6:58 AM CDT 6:01 PM CDT
Civil Twilight 6:33 AM CDT 6:26 PM CDT
Nautical Twilight 6:04 AM CDT 6:55 PM CDT
Astronomical Twilight 5:36 AM CDT 7:23 PM CDT
Moon 7:53 AM CDT (10/27) 6:38 PM CDT (10/27)
Length of Visible Light 11h 52m
Length of Day
11h 03m
New Moon, 1% of the Moon is Illuminated
Oct 27
New Moon
Nov 2
First Quarter
Nov 10
Full
Nov 18
Last Quarter
Nov 25
New

Hourly Weather History & Observations

Time (CDT) Temp. Dew Point Humidity Pressure Visibility Wind Dir Wind Speed Gust Speed Precip Events Conditions
12:56 AM 55.0 °F 51.1 °F 86% 29.97 in 10.0 mi Calm Calm - N/A   Clear
1:56 AM 55.0 °F 51.1 °F 86% 29.97 in 10.0 mi Calm Calm - N/A   Clear
2:56 AM 53.1 °F 50.0 °F 89% 29.96 in 10.0 mi Calm Calm - N/A   Partly Cloudy
3:56 AM 54.0 °F 50.0 °F 86% 29.95 in 10.0 mi Calm Calm - N/A   Scattered Clouds
4:56 AM 53.1 °F 51.1 °F 93% 29.94 in 10.0 mi Calm Calm - N/A   Partly Cloudy
5:56 AM 52.0 °F 48.9 °F 89% 29.94 in 10.0 mi Calm Calm - N/A   Clear
6:52 AM 50.0 °F 48.0 °F 93% 29.95 in 1.5 mi Calm Calm - N/A   Clear
6:56 AM 48.9 °F 46.9 °F 93% 29.95 in 1.0 mi Calm Calm - N/A   Clear
7:06 AM 48.9 °F 46.9 °F 93% 29.96 in 3.0 mi Calm Calm - N/A   Clear
7:56 AM 52.0 °F 50.0 °F 93% 29.96 in 7.0 mi Calm Calm - N/A   Clear
8:56 AM 63.0 °F 57.0 °F 81% 29.96 in 10.0 mi Calm Calm - 0.00 in   Clear
9:56 AM 72.0 °F 52.0 °F 49% 29.95 in 10.0 mi WSW 8.1 mph - N/A   Clear
10:56 AM 75.0 °F 51.1 °F 43% 29.94 in 10.0 mi West 8.1 mph - N/A   Clear
11:56 AM 77.0 °F 50.0 °F 39% 29.92 in 10.0 mi Variable 3.5 mph - N/A   Clear
12:56 PM 78.1 °F 50.0 °F 37% 29.90 in 10.0 mi Calm Calm - N/A   Clear
1:56 PM 81.0 °F 51.1 °F 35% 29.88 in 10.0 mi Variable 3.5 mph - N/A   Clear
2:56 PM 80.1 °F 52.0 °F 38% 29.87 in 10.0 mi Variable 3.5 mph - N/A   Partly Cloudy
3:56 PM 80.1 °F 51.1 °F 36% 29.87 in 10.0 mi Calm Calm - N/A   Partly Cloudy
4:56 PM 79.0 °F 51.1 °F 38% 29.87 in 10.0 mi Calm Calm - N/A   Clear
5:56 PM 73.0 °F 55.0 °F 53% 29.88 in 10.0 mi WNW 3.5 mph - N/A   Clear
6:56 PM 66.9 °F 55.0 °F 66% 29.91 in 10.0 mi Calm Calm - N/A   Clear
7:56 PM 63.0 °F 55.0 °F 75% 29.92 in 10.0 mi Calm Calm - N/A   Clear
8:56 PM 59.0 °F 54.0 °F 83% 29.91 in 10.0 mi Calm Calm - 0.00 in   Clear
9:56 PM 59.0 °F 54.0 °F 83% 29.92 in 10.0 mi Calm Calm - N/A   Clear
10:56 PM 55.9 °F 52.0 °F 87% 29.91 in 10.0 mi Calm Calm - N/A   Clear
11:56 PM 55.0 °F 52.0 °F 89% 29.91 in 10.0 mi SSE 3.5 mph - N/A   Clear